Home   Weather   Paris   Past weeks
Flag for USA

Past Weather in Paris, Ohio, USA — Yesterday and Last 2 Weeks

Now
51 °F

Overcast.


Feels Like: 47 °F
Forecast: 53 / 45 °F
Wind: 10 mph from Northwest

Location: Akron Fulton International Airport

Current Time: Oct 17, 2019 at 7:25:13 pm

Latest Report: Oct 17, 2019 at 6:54 pm


Visibility: 10 mi

Pressure: 29.91 "Hg

Humidity: 59%

Dew Point: 37 °F

Location of ParisLocation

Past Weather in Paris — Graph

°F

Paris Temperature Yesterday

Maximum temperature yesterday: 64 °F (at 12:54 am)
Minimum temperature yesterday: 48 °F (at 5:54 pm)
Average temperature yesterday: 53 °F

High & Low Weather Summary for the Past Weeks

 TemperatureHumidityPressure
High90 °F (Oct 3, 1:54 pm)93% (Oct 3, 6:54 am)30.36 "Hg (Oct 3, 6:54 am)
Low38 °F (Oct 15, 12:54 am)24% (Oct 13, 3:54 pm)29.62 "Hg (Oct 16, 5:54 am)
Average59 °F66%30.04 "Hg
* Reported Oct 2 5:41 pm — Oct 17 5:54 pm, Paris. Weather by CustomWeather, © 2019

Note: Actual official high and low records may vary slightly from our data, if they occured in-between our weather recording intervals... More about our weather records

Advertising

Paris Weather History for the Previous 24 Hours

Scroll right to see more
 ConditionsComfort  
Time TempWeatherWind HumidityBarometerVisibility
5:54 pm
Thu, Oct 17
51 °FOvercast.14 mph56%29.89 "Hg10 mi
4:54 pm52 °FOvercast.14 mph55%29.88 "Hg10 mi
3:54 pm52 °FMore clouds than sun.12 mph55%29.88 "Hg10 mi
2:54 pm52 °FMore clouds than sun.17 mph57%29.87 "Hg10 mi
1:54 pm51 °FOvercast.15 mph56%29.86 "Hg10 mi
12:54 pm51 °FMostly cloudy.15 mph59%29.85 "Hg10 mi
12:27 pm50 °FMostly cloudy.17 mph59%29.85 "Hg10 mi
9:54 am47 °FMostly cloudy.9 mph74%29.84 "Hg10 mi
9:20 am46 °FOvercast.10 mph77%29.82 "Hg10 mi
9:10 am45 °FMostly cloudy.12 mph80%29.82 "Hg10 mi
8:54 am45 °FOvercast.13 mph76%29.82 "Hg10 mi
7:54 am45 °FOvercast.12 mph80%29.80 "Hg10 mi
6:54 am45 °FOvercast.10 mph80%29.78 "Hg10 mi
5:54 am46 °FMostly cloudy.13 mph79%29.75 "Hg10 mi
4:54 am46 °FMostly cloudy.13 mph83%29.74 "Hg10 mi
4:17 am46 °FMostly cloudy.12 mph83%29.73 "Hg10 mi
4:09 am46 °FMostly cloudy.12 mph83%29.73 "Hg10 mi
3:54 am46 °FLight rain. Mostly cloudy.13 mph83%29.74 "Hg10 mi
3:13 am46 °FLight rain. Mostly cloudy.12 mph83%29.73 "Hg10 mi
2:54 am46 °FLight rain. Mostly cloudy.12 mph86%29.74 "Hg9 mi
2:17 am47 °FLight rain. Overcast.17 mph80%29.73 "Hg10 mi
1:54 am47 °FLight rain. Mostly cloudy.18 mph80%29.73 "Hg10 mi
12:54 am47 °FLight rain. Mostly cloudy.13 mph80%29.73 "Hg10 mi
12:07 am48 °FLight rain. Overcast.15 mph80%29.72 "Hg10 mi
11:54 pm
Wed, Oct 16
48 °FLight rain. Mostly cloudy.14 mph83%29.73 "Hg10 mi
10:54 pm48 °FRain. Overcast.14 mph83%29.72 "Hg9 mi
10:08 pm48 °FLight rain. Mostly cloudy.17 mph83%29.71 "Hg9 mi
9:34 pm49 °FRain. Overcast.10 mph84%29.70 "Hg4 mi
8:54 pm49 °FLight rain. Overcast.14 mph84%29.70 "Hg10 mi
7:54 pm50 °FLight rain. Mostly cloudy.16 mph80%29.68 "Hg10 mi
Weather by CustomWeather, © 2019

See weather overview